Beatty, Nevada Weather observations

Data are for observation ending at time listed.
 Day   Time    Ave.   Ave.  Ave.  Vector   Max.   Stn.    Total    Solar   Ave.  
  of    of     Air    Rel.  Wind   Wind    Wind   Baro.  Precip.   Rad.    Soil  
Year   Day     Temp.  Hum.  Speed  Dir.    Gust   Pres.                    Temp. 
2015   (PST)    F      %     mph   deg.    mph     mb.     in.     W/m2     F   
------------------------------------------------------------------------------
  88    8:40   69.7    13    4.1    74      9.9   905.1    0.00     484    65.5
  88    8:50   69.4    13    4.1    76      8.1   905.2    0.00     455    65.5
  88    9:00   70.5    13    4.3    84      8.3   905.2    0.00     508    65.4
  88    9:10   71.3    13    3.0    90      7.6   905.3    0.00     436    65.4
  88    9:20   71.8    13    3.2    80      7.3   905.3    0.00     388    65.3
  88    9:30   72.8    12    3.4    85      6.7   905.2    0.00     607    65.3
  88    9:40   74.0    12    3.3    80      7.5   905.1    0.00     624    65.2
  88    9:50   75.3    11    1.6   316      4.2   905.1    0.00     634    65.2
  88   10:00   76.5    11    1.2   294      3.9   905.0    0.00     648    65.2
  88   10:10   77.7    10    1.1   222      3.3   905.0    0.00     663    65.1
  88   10:20   78.1    10    2.3   126      5.6   904.9    0.00     645    65.1
  88   10:30   77.6    10    3.3   199      7.6   904.7    0.00     683    65.0
  88   10:40   77.1    11    1.8   250      4.4   904.7    0.00     697    65.0
  88   10:50   77.2    10    2.5   279      5.9   904.5    0.00     708    65.0
  88   11:00   78.1    10    3.1   214      6.7   904.3    0.00     713    65.0
  88   11:10   78.5    10    3.0   226      7.3   904.2    0.00     721    65.0
  88   11:20   77.7    10    2.4   267      4.4   904.1    0.00     731    65.0
  88   11:30   78.3    10    2.1   308      6.0   903.9    0.00     737    65.0
  88   11:40   79.6    10    3.3   216      8.6   903.8    0.00     735    65.1
  88   11:50   80.8    10    2.1   178      6.9   903.7    0.00     738    65.1
  88   12:00   80.7     9    4.3   210     10.3   903.6    0.00     737    65.2
  88   12:10   80.7     9    3.9   188      9.1   903.4    0.00     737    65.2
  88   12:20   80.7    10    3.1   254      8.8   903.2    0.00     736    65.3
  88   12:30   80.9    10    6.2   214     10.6   903.1    0.00     729    65.3
  88   12:40   81.2    10    5.3   217     11.8   902.9    0.00     725    65.4
  88   12:50   81.2     9    4.9   211     12.1   902.7    0.00     717    65.5
  88   13:00   81.9     9    7.5   212     14.5   902.5    0.00     709    65.6
  88   13:10   81.6     9    5.9   222     11.9   902.5    0.00     698    65.7
  88   13:20   81.8     8    6.6   189     13.5   902.4    0.00     687    65.8
  88   13:30   82.2     8    6.7   212     12.8   902.3    0.00     675    65.9
  88   13:40   82.3     8    5.7   221     12.3   902.2    0.00     661    66.0
  88   13:50   81.4     9    4.9   244     10.6   902.1    0.00     645    66.1
  88   14:00   82.2     8    7.2   211     16.7   902.0    0.00     571    66.2
  88   14:10   82.2     8    6.2   202     11.5   902.0    0.00     610    66.3
  88   14:20   82.1     8    7.0   174     13.3   901.9    0.00     315    66.5
  88   14:30   81.9     8    4.7   168     17.1   901.8    0.00      41    66.6
  88   14:40   81.9     8    6.9   204     14.0   901.6    0.00     449    66.7
  88   14:50   81.7     8    8.9   219     14.1   901.5    0.00     528    66.8
  88   15:00   81.7     7    8.7   215     14.4   901.4    0.00     483    66.9
  88   15:10   81.4     7    9.0   221     15.9   901.3    0.00     164    67.0
  88   15:20   81.5     7    8.7   214     13.7   901.2    0.00      59    67.1
  88   15:30   81.5     8    6.5   209     15.6   901.2    0.00      33    67.1
  88   15:40   81.5     8    8.1   213     14.1   901.2    0.00      33    67.2
  88   15:50   81.1     8    7.8   210     13.6   901.2    0.00      32    67.3
  88   16:00   80.9     8    7.8   213     12.1   901.1    0.00      29    67.4
  88   16:10   81.0     8    6.4   229     11.7   901.1    0.00      29    67.6
  88   16:20   80.9     8    7.4   211     11.1   901.0    0.00      28    67.7
  88   16:30   81.2     8    6.5   215     12.1   901.0    0.00      26    67.7
  88   16:40   81.7     8    7.5   211     11.7   900.9    0.00      31    67.8
  88   16:50   82.5     8    4.4   206      9.2   900.8    0.00      35    67.9
  88   17:00   82.4     8    4.7   195      9.3   900.8    0.00      61    68.0
  88   17:10   82.1     8    4.7   192      9.2   900.7    0.00     109    68.0
  88   17:20   82.0     8    3.9   216      7.2   900.6    0.00     114    68.0
  88   17:30   81.6     8    3.7   206      6.6   900.7    0.00      90    68.0
  88   17:40   80.9     8    3.6   218      6.3   900.7    0.00      57    68.1
  88   17:50   79.9     8    3.1   214      4.9   900.7    0.00      25    68.1
  88   18:00   77.8     8    2.4   212      3.8   900.7    0.00       8    68.2
  88   18:10   76.3     9    2.0   223      3.3   900.8    0.00       3    68.2
  88   18:20   74.7    11    0.8   263      2.6   900.8    0.00       1    68.2
  88   18:30   72.5    12    0.4   326      1.5   900.8    0.00       0    68.3
  88   18:40   70.8    12    0.8    27      2.0   900.9    0.00       0    68.3
  88   18:50   69.3    12    0.7    27      2.1   901.0    0.00       0    68.3
  88   19:00   67.9    13    1.0    37      1.9   901.2    0.00       0    68.3
  88   19:10   67.4    13    0.6    42      1.8   901.3    0.00       0    68.3
  88   19:20   66.4    13    1.5    51      2.5   901.4    0.00       0    68.4
  88   19:30   65.3    14    1.7    14      3.1   901.5    0.00       0    68.4
  88   19:40   63.5    14    2.0    52      3.5   901.6    0.00       0    68.3
  88   19:50   61.4    16    1.7    51      4.3   901.7    0.00       0    68.4
  88   20:00   61.1    16    1.9    42      3.4   901.8    0.00       0    68.4
  88   20:10   60.1    16    1.9    62      3.9   901.9    0.00       0    68.4
  88   20:20   61.4    15    2.7    32      5.6   901.9    0.00       0    68.4
  88   20:30   63.7    14    3.3    38      7.7   901.9    0.00       0    68.4
  88   20:40   65.4    13    3.5    49      8.6   902.0    0.00       0    68.4
  88   20:50   65.0    13    3.8    58      8.3   902.1    0.00       0    68.4
  88   21:00   64.6    13    3.8    56      8.0   902.1    0.00       0    68.4
  88   21:10   64.3    13    3.6    51     10.6   902.2    0.00       0    68.4
  88   21:20   63.8    13    3.5    39      8.8   902.3    0.00       0    68.4
  88   21:30   63.1    13    4.9    26      8.3   902.3    0.00       0    68.4
  88   21:40   63.0    14    4.8    17      8.6   902.3    0.00       0    68.4
  88   21:50   61.6    15    5.2   354      8.0   902.4    0.00       0    68.5
  88   22:00   60.6    15    5.8     1      9.4   902.4    0.00       0    68.5
  88   22:10   61.4    15    5.5    24      8.8   902.4    0.00       0    68.5
  88   22:20   60.7    15    5.7    14      9.6   902.4    0.00       0    68.5
  88   22:30   58.3    17    5.6    12      9.4   902.4    0.00       0    68.4
  88   22:40   59.9    16    4.4    24      8.9   902.4    0.00       0    68.4
  88   22:50   59.8    16    4.8    21      8.9   902.4    0.00       0    68.4
  88   23:00   58.0    18    5.4    10      8.9   902.4    0.00       0    68.4
  88   23:10   56.2    19    5.5    20      9.1   902.4    0.00       0    68.4
  88   23:20   55.2    20    5.2     6      8.3   902.3    0.00       0    68.4
  88   23:30   56.1    19    5.5    19      7.9   902.4    0.00       0    68.3
  88   23:40   56.2    19    6.0    17     10.0   902.4    0.00       0    68.3
  88   23:50   54.9    20    5.0    21      8.3   902.4    0.00       0    68.3
  89    0:00   55.3    20    5.2    24      9.1   902.4    0.00       0    68.3
  89    0:10   56.7    19    4.5    26      9.6   902.5    0.00       0    68.2
  89    0:20   58.4    17    5.3    28     10.8   902.5    0.00       0    68.2
  89    0:30   57.0    19    5.5    14      9.3   902.5    0.00       0    68.2
  89    0:40   56.9    19    5.0    11      9.1   902.6    0.00       0    68.1
  89    0:50   57.3    18    4.8     8      9.9   902.5    0.00       0    68.1
  89    1:00   55.9    20    6.1   354      9.8   902.5    0.00       0    68.1
  89    1:10   54.5    21    6.5   358     10.9   902.5    0.00       0    68.0
  89    1:20   53.0    22    7.1     0     11.2   902.5    0.00       0    68.0
  89    1:30   52.1    23    5.1    24      9.7   902.5    0.00       0    68.0
  89    1:40   51.6    24    3.3    39      7.5   902.5    0.00       0    67.9
  89    1:50   51.3    24    3.6    36      8.8   902.5    0.00       0    67.9
  89    2:00   51.0    24    5.1    27     11.2   902.5    0.00       0    67.8
  89    2:10   52.4    22    4.9    28      9.6   902.5    0.00       0    67.7
  89    2:20   54.6    20    4.0    30      7.8   902.5    0.00       0    67.7
  89    2:30   55.0    20    4.0    30      8.6   902.5    0.00       0    67.6
  89    2:40   54.8    20    3.7    29      9.0   902.5    0.00       0    67.6
  89    2:50   53.3    22    5.1    17      9.6   902.6    0.00       0    67.5
  89    3:00   51.0    24    5.9    23     10.3   902.6    0.00       0    67.5
  89    3:10   51.5    24    6.0     8      9.3   902.6    0.00       0    67.4
  89    3:20   50.3    24    7.2     4     11.5   902.7    0.00       0    67.4
  89    3:30   51.0    24    5.7    10     11.3   902.7    0.00       0    67.3
  89    3:40   51.7    23    5.2    23      9.0   902.7    0.00       0    67.3
  89    3:50   51.9    23    6.1    18     10.4   902.8    0.00       0    67.2
  89    4:00   49.8    25    5.2     1      9.3   902.8    0.00       0    67.1
  89    4:10   49.3    25    5.1     6      9.6   902.9    0.00       0    67.1
  89    4:20   48.7    26    6.7   355     10.1   902.9    0.00       0    67.0
  89    4:30   49.1    26    6.6   358     10.2   902.9    0.00       0    67.0
  89    4:40   48.7    26    7.0   360     12.0   903.0    0.00       0    66.9
  89    4:50   48.5    26    5.0     8      9.8   903.1    0.00       0    66.9
  89    5:00   47.9    27    5.9     3     11.2   903.1    0.00       0    66.8
  89    5:10   47.7    27    6.8   357     10.4   903.2    0.00       0    66.7
  89    5:20   48.3    26    7.5   358     10.7   903.2    0.00       0    66.7
  89    5:30   48.4    26    7.3   357     11.2   903.3    0.00       0    66.6
  89    5:40   48.7    26    6.8   358     10.6   903.4    0.00       2    66.5
  89    5:50   49.8    24    6.1   360      9.6   903.6    0.00       6    66.5
  89    6:00   51.2    23    5.8     4     11.2   903.6    0.00      11    66.4
  89    6:10   50.6    24    6.2     4     12.4   903.7    0.00      14    66.3
  89    6:20   50.8    24    6.2     0     11.0   903.8    0.00      18    66.3
  89    6:30   51.6    24    6.7    13     13.1   903.9    0.00      22    66.2
  89    6:40   52.0    23    6.1    28     11.3   903.9    0.00      25    66.1
  89    6:50   52.6    23    5.4    27      9.8   903.9    0.00      32    66.1
  89    7:00   53.2    24    6.0    10     10.4   903.9    0.00      31    66.0
  89    7:10   54.7    22    6.7     3     11.6   903.9    0.00      32    65.9
  89    7:20   57.0    20    6.1    14     10.6   904.0    0.00      35    65.9
  89    7:30   59.3    18    5.7    28     10.6   904.0    0.00      40    65.8
  89    7:40   60.6    17    5.5    24     10.4   904.1    0.00     125    65.7
  89    7:50   61.8    16    5.4    23     10.2   904.1    0.00     344    65.7
  89    8:00   62.4    15    6.4    26     11.4   904.1    0.00     373    65.6
  89    8:10   63.9    15    4.5    43     10.7   904.1    0.00     399    65.5
  89    8:20   65.5    14    3.7    42      8.9   904.1    0.00     425    65.4
  89    8:30   66.8    13    3.8    46      9.3   904.2    0.00     451    65.4

Return to Beatty, Nevada graphs page.


Western Regional Climate Center,wrcc@dri.edu